UAE892L OMDB-OEJN

Flight info

Callsign UAE892L
Flight time N/A
Altitude 34000
Route KUTLI L519 ATUDO/N0490F380 M318 GOLGU M550 RIBOT DCT MIGMA DCT ITRUX Y511 ASMIS T218 IMGUT M309 VEMEM
Aircraft B77W/H-SDE1E2E3FGHIJ2J3J4J5M1RWXY/LB1D1

Departure

Time 2026-04-26 17:01
Airport Dubai International Airport (OMDB)

Arrival

Time N/A
Airport King Abdulaziz International Airport (OEJN)
Time Latitude Longitude Altitude Speed Heading
2026-04-26 16:42 25.24772 55.36503 14 ft 0 kts 211°
2026-04-26 16:48 25.24786 55.36513 16 ft 3 kts 211°
2026-04-26 16:48 25.24804 55.36525 16 ft 3 kts 211°
2026-04-26 16:48 25.24822 55.36537 16 ft 2 kts 211°
2026-04-26 16:48 25.24838 55.36546 16 ft 3 kts 184°
2026-04-26 16:49 25.24853 55.36542 17 ft 3 kts 129°
2026-04-26 16:49 25.24864 55.36523 18 ft 3 kts 120°
2026-04-26 16:49 25.24868 55.36517 15 ft 0 kts 121°
2026-04-26 16:53 25.24862 55.36526 17 ft 3 kts 121°
2026-04-26 16:54 25.24848 55.36552 16 ft 5 kts 121°
2026-04-26 16:54 25.24830 55.36587 14 ft 6 kts 118°
2026-04-26 16:54 25.24801 55.36655 14 ft 15 kts 112°
2026-04-26 16:54 25.24774 55.36769 14 ft 15 kts 103°
2026-04-26 16:55 25.24768 55.36793 14 ft 0 kts 105°
2026-04-26 16:55 25.24760 55.36818 14 ft 7 kts 112°
2026-04-26 16:55 25.24739 55.36867 14 ft 7 kts 119°
2026-04-26 16:55 25.24710 55.36921 14 ft 9 kts 120°
2026-04-26 16:56 25.24623 55.37079 15 ft 14 kts 121°
2026-04-26 16:56 25.24572 55.37170 15 ft 14 kts 122°
2026-04-26 16:56 25.24520 55.37263 15 ft 15 kts 122°
2026-04-26 16:57 25.24464 55.37365 15 ft 17 kts 119°
2026-04-26 16:57 25.24403 55.37478 16 ft 17 kts 121°
2026-04-26 16:57 25.24278 55.37701 16 ft 17 kts 111°
2026-04-26 16:58 25.24288 55.37779 17 ft 0 kts 47°
2026-04-26 16:58 25.24289 55.37779 17 ft 0 kts 47°
2026-04-26 16:58 25.24292 55.37782 17 ft 1 kts 38°
2026-04-26 16:59 25.24296 55.37785 17 ft 1 kts 38°
2026-04-26 16:59 25.24322 55.37808 17 ft 6 kts 38°
2026-04-26 17:00 25.24452 55.37909 19 ft 20 kts 34°
2026-04-26 17:00 25.24680 55.38074 17 ft 19 kts 31°
2026-04-26 17:00 25.24795 55.38042 16 ft 20 kts 303°
2026-04-26 17:01 25.24891 55.37876 16 ft 41 kts 302°
2026-04-26 17:01 25.25191 55.37336 15 ft 123 kts 302°
2026-04-26 17:01 25.25758 55.36320 126 ft 177 kts 301°
2026-04-26 17:01 25.26428 55.35159 835 ft 183 kts 302°
2026-04-26 17:02 25.27079 55.34012 1718 ft 180 kts 298°
2026-04-26 17:02 25.27737 55.32803 2420 ft 185 kts 299°
2026-04-26 17:02 25.28404 55.31588 3182 ft 185 kts 301°
2026-04-26 17:02 25.29053 55.30351 3760 ft 188 kts 293°
2026-04-26 17:03 25.29205 55.28905 3985 ft 196 kts 265°
2026-04-26 17:03 25.28726 55.27478 4006 ft 198 kts 248°
2026-04-26 17:03 25.28135 55.26112 4205 ft 194 kts 250°
2026-04-26 17:03 25.27514 55.24755 4534 ft 207 kts 239°
2026-04-26 17:04 25.26327 55.23646 4761 ft 241 kts 217°
2026-04-26 17:04 25.24838 55.22588 5135 ft 262 kts 217°
2026-04-26 17:04 25.23292 55.21475 5816 ft 273 kts 217°
2026-04-26 17:04 25.21674 55.20297 6551 ft 282 kts 217°
2026-04-26 17:05 25.20024 55.19083 7409 ft 286 kts 217°
2026-04-26 17:05 25.18360 55.17849 8320 ft 289 kts 217°
2026-04-26 17:05 25.16679 55.16595 9196 ft 293 kts 217°
2026-04-26 17:05 25.14983 55.15324 10062 ft 296 kts 217°
2026-04-26 17:06 25.13267 55.14033 10703 ft 310 kts 217°
2026-04-26 17:06 25.11401 55.12624 10947 ft 340 kts 217°
2026-04-26 17:06 25.09367 55.11085 11143 ft 369 kts 217°
2026-04-26 17:06 25.07205 55.09455 11785 ft 382 kts 216°
2026-04-26 17:07 25.04989 55.07788 12735 ft 388 kts 216°
2026-04-26 17:07 25.02747 55.06102 13791 ft 391 kts 216°
2026-04-26 17:07 25.00491 55.04404 14630 ft 394 kts 216°
2026-04-26 17:07 24.98217 55.02692 14930 ft 397 kts 216°
2026-04-26 17:08 24.95953 55.00987 14906 ft 398 kts 216°
2026-04-26 17:08 24.93659 54.99261 14910 ft 398 kts 216°
2026-04-26 17:08 24.91375 54.97542 14953 ft 396 kts 216°
2026-04-26 17:08 24.89100 54.95831 15181 ft 397 kts 216°
2026-04-26 17:09 24.86789 54.94100 15881 ft 403 kts 215°
2026-04-26 17:09 24.85199 54.93029 16534 ft 405 kts 211°
2026-04-26 17:09 24.81905 54.91083 17895 ft 406 kts 210°
2026-04-26 17:09 24.79396 54.89605 18743 ft 409 kts 210°
2026-04-26 17:10 24.76874 54.88111 19497 ft 414 kts 210°
2026-04-26 17:10 24.74324 54.86593 20266 ft 418 kts 211°
2026-04-26 17:10 24.71760 54.85064 21045 ft 422 kts 211°
2026-04-26 17:10 24.69157 54.83513 21829 ft 426 kts 211°
2026-04-26 17:11 24.66560 54.81921 22586 ft 429 kts 213°
2026-04-26 17:11 24.64000 54.80281 23312 ft 433 kts 213°
2026-04-26 17:11 24.61388 54.78587 23917 ft 437 kts 214°
2026-04-26 17:11 24.58748 54.76883 24504 ft 441 kts 214°
2026-04-26 17:12 24.53375 54.73452 25569 ft 451 kts 214°
2026-04-26 17:12 24.50653 54.71696 26107 ft 455 kts 214°
2026-04-26 17:13 24.45194 54.68135 27149 ft 463 kts 214°
2026-04-26 17:13 24.42408 54.66329 27641 ft 467 kts 214°
2026-04-26 17:13 24.36713 54.62728 28565 ft 475 kts 214°
2026-04-26 17:14 24.33845 54.60918 28979 ft 478 kts 214°
2026-04-26 17:14 24.28046 54.57217 29748 ft 484 kts 216°
2026-04-26 17:14 24.25378 54.55065 30079 ft 481 kts 226°
2026-04-26 17:15 24.21157 54.49492 30933 ft 472 kts 240°
2026-04-26 17:15 24.19528 54.46392 31414 ft 468 kts 245°
2026-04-26 17:15 24.17987 54.43256 31905 ft 467 kts 245°
2026-04-26 17:16 24.16437 54.40124 32397 ft 465 kts 245°
2026-04-26 17:16 24.14886 54.37017 32878 ft 464 kts 246°
2026-04-26 17:16 24.13335 54.33930 33371 ft 463 kts 246°
2026-04-26 17:16 24.11775 54.30839 33845 ft 462 kts 246°
2026-04-26 17:17 24.10223 54.27769 34251 ft 461 kts 246°
2026-04-26 17:17 24.08687 54.24733 34620 ft 461 kts 246°
2026-04-26 17:17 24.07134 54.21664 35014 ft 460 kts 246°
2026-04-26 17:17 24.05585 54.18607 35397 ft 459 kts 246°
2026-04-26 17:18 24.04036 54.15548 35741 ft 459 kts 246°
2026-04-26 17:18 24.02490 54.12496 36077 ft 459 kts 246°
2026-04-26 17:18 24.00941 54.09443 36421 ft 458 kts 246°
2026-04-26 17:18 23.99396 54.06400 36769 ft 458 kts 246°
2026-04-26 17:19 23.96234 54.00352 37462 ft 458 kts 245°
2026-04-26 17:19 23.94631 53.97330 37795 ft 457 kts 245°
2026-04-26 17:19 23.93031 53.94315 37854 ft 462 kts 245°
2026-04-26 17:20 23.90356 53.89265 37890 ft 462 kts 245°
2026-04-26 17:20 23.86631 53.82230 37897 ft 455 kts 245°
2026-04-26 17:21 23.83488 53.76286 37905 ft 453 kts 245°
2026-04-26 17:21 23.80508 53.70659 37901 ft 453 kts 245°
2026-04-26 17:22 23.77343 53.64689 37912 ft 454 kts 245°
2026-04-26 17:22 23.74165 53.58705 37899 ft 456 kts 245°
2026-04-26 17:23 23.70979 53.52712 37916 ft 457 kts 245°
2026-04-26 17:23 23.67781 53.46686 37915 ft 459 kts 245°
2026-04-26 17:24 23.64583 53.40645 37915 ft 461 kts 245°
2026-04-26 17:24 23.61381 53.34607 37919 ft 461 kts 245°
2026-04-26 17:25 23.58157 53.28539 37913 ft 461 kts 245°
2026-04-26 17:25 23.54958 53.22525 37909 ft 461 kts 245°
2026-04-26 17:26 23.51739 53.16481 37915 ft 460 kts 245°
2026-04-26 17:26 23.48520 53.10442 37915 ft 460 kts 245°
2026-04-26 17:27 23.45309 53.04424 37918 ft 460 kts 245°
2026-04-26 17:27 23.42091 52.98401 37919 ft 459 kts 245°
2026-04-26 17:28 23.38929 52.92420 37918 ft 458 kts 245°
2026-04-26 17:28 23.35829 52.86355 37917 ft 458 kts 246°
2026-04-26 17:29 23.33256 52.81312 37915 ft 457 kts 246°
2026-04-26 17:29 23.29622 52.74234 37917 ft 457 kts 245°
2026-04-26 17:30 23.26531 52.68234 37915 ft 457 kts 245°
2026-04-26 17:30 23.23424 52.62209 37915 ft 457 kts 245°
2026-04-26 17:31 23.20308 52.56173 37914 ft 457 kts 245°
2026-04-26 17:31 23.17459 52.50004 37911 ft 452 kts 253°
2026-04-26 17:32 23.15463 52.43576 37914 ft 451 kts 256°
2026-04-26 17:32 23.13453 52.37150 37915 ft 451 kts 255°
2026-04-26 17:33 23.11390 52.30675 37913 ft 452 kts 255°
2026-04-26 17:34 23.08308 52.21021 37915 ft 452 kts 255°
2026-04-26 17:34 23.06242 52.14547 37915 ft 452 kts 255°
2026-04-26 17:35 23.04178 52.08090 37914 ft 452 kts 255°
2026-04-26 17:35 23.02128 52.01683 37915 ft 452 kts 255°
2026-04-26 17:36 23.00057 51.95223 37914 ft 452 kts 255°
2026-04-26 17:36 22.97987 51.88776 37920 ft 451 kts 255°
2026-04-26 17:37 22.95929 51.82376 37914 ft 451 kts 255°
2026-04-26 17:37 22.93851 51.75926 37918 ft 451 kts 255°
2026-04-26 17:38 22.90748 51.66309 37915 ft 451 kts 255°
2026-04-26 17:38 22.88670 51.59884 37915 ft 451 kts 255°
2026-04-26 17:39 22.86603 51.53499 37918 ft 451 kts 255°
2026-04-26 17:39 22.85114 51.48065 37917 ft 446 kts 262°
2026-04-26 17:40 22.84341 51.42545 37921 ft 444 kts 267°
2026-04-26 17:40 22.84160 51.34792 37923 ft 442 kts 272°
2026-04-26 17:41 22.84156 51.28122 37921 ft 442 kts 272°
2026-04-26 17:41 22.84135 51.21482 37921 ft 442 kts 272°
2026-04-26 17:42 22.84094 51.14813 37917 ft 443 kts 272°
2026-04-26 17:42 22.84043 51.08106 37918 ft 443 kts 271°
2026-04-26 17:43 22.83989 51.01457 37916 ft 443 kts 271°
2026-04-26 17:43 22.83931 50.94790 37919 ft 443 kts 271°
2026-04-26 17:44 22.83871 50.88106 37921 ft 443 kts 271°
2026-04-26 17:44 22.83809 50.81442 37919 ft 443 kts 271°
2026-04-26 17:45 22.83744 50.74749 37919 ft 443 kts 271°
2026-04-26 17:45 22.83676 50.68104 37920 ft 443 kts 271°
2026-04-26 17:46 22.83605 50.61386 37918 ft 443 kts 271°
2026-04-26 17:46 22.83531 50.54714 37918 ft 444 kts 271°
2026-04-26 17:47 22.83468 50.49161 37917 ft 444 kts 271°
2026-04-26 17:47 22.83376 50.41350 37907 ft 444 kts 271°
2026-04-26 17:48 22.83294 50.34652 37931 ft 444 kts 271°
2026-04-26 17:48 22.83209 50.27997 37915 ft 443 kts 271°
2026-04-26 17:49 22.83122 50.21323 37912 ft 443 kts 271°
2026-04-26 17:49 22.83031 50.14646 37907 ft 442 kts 271°
2026-04-26 17:50 22.82938 50.07968 37914 ft 442 kts 271°
2026-04-26 17:50 22.82843 50.01343 37912 ft 442 kts 271°
2026-04-26 17:51 22.82745 49.94670 37913 ft 442 kts 271°
2026-04-26 17:51 22.82644 49.88003 37908 ft 442 kts 271°
2026-04-26 17:52 22.82540 49.81366 37909 ft 442 kts 271°
2026-04-26 17:52 22.82434 49.74729 37907 ft 442 kts 271°
2026-04-26 17:53 22.82324 49.68052 37906 ft 442 kts 271°
2026-04-26 17:54 22.82155 49.58063 37903 ft 442 kts 271°
2026-04-26 17:54 22.82038 49.51399 37901 ft 443 kts 271°
2026-04-26 17:55 22.81919 49.44745 37907 ft 442 kts 270°
2026-04-26 17:55 22.81797 49.38073 37900 ft 442 kts 270°
2026-04-26 17:56 22.81672 49.31411 37897 ft 441 kts 270°
2026-04-26 17:57 22.81416 49.18159 37898 ft 440 kts 270°
2026-04-26 17:57 22.81284 49.11519 37901 ft 440 kts 270°
2026-04-26 17:58 22.81010 48.98247 37905 ft 440 kts 270°
2026-04-26 17:59 22.80799 48.88320 37902 ft 441 kts 270°
2026-04-26 17:59 22.80654 48.81682 37903 ft 441 kts 270°
2026-04-26 18:00 22.80506 48.75035 37907 ft 441 kts 270°
2026-04-26 18:00 22.80356 48.68386 37907 ft 441 kts 270°
2026-04-26 18:01 22.80203 48.61747 37908 ft 441 kts 270°
2026-04-26 18:01 22.80055 48.55467 37903 ft 441 kts 270°
2026-04-26 18:02 22.79922 48.49897 37904 ft 441 kts 270°
2026-04-26 18:02 22.79735 48.42172 37897 ft 441 kts 270°
2026-04-26 18:03 22.79571 48.35528 37906 ft 441 kts 270°
2026-04-26 18:03 22.79404 48.28876 37908 ft 441 kts 270°
2026-04-26 18:04 22.79234 48.22213 37895 ft 442 kts 270°
2026-04-26 18:05 22.78974 48.12258 37911 ft 442 kts 270°
2026-04-26 18:05 22.78797 48.05584 37906 ft 443 kts 270°
2026-04-26 18:06 22.78617 47.98909 37910 ft 443 kts 270°
2026-04-26 18:06 22.78433 47.92225 37912 ft 443 kts 270°
2026-04-26 18:07 22.78248 47.85576 37909 ft 443 kts 270°
2026-04-26 18:07 22.78060 47.78890 37915 ft 443 kts 269°
2026-04-26 18:08 22.77868 47.72217 37914 ft 443 kts 269°
2026-04-26 18:08 22.77676 47.65596 37919 ft 442 kts 269°
2026-04-26 18:09 22.77479 47.58931 37926 ft 442 kts 269°
2026-04-26 18:09 22.77280 47.52269 37925 ft 441 kts 269°
2026-04-26 18:10 22.77078 47.45618 37926 ft 441 kts 269°
2026-04-26 18:10 22.76875 47.39008 37927 ft 441 kts 269°
2026-04-26 18:11 22.76667 47.32358 37932 ft 441 kts 269°
2026-04-26 18:11 22.76459 47.25754 37938 ft 441 kts 269°
2026-04-26 18:12 22.76251 47.19096 37938 ft 441 kts 270°
2026-04-26 18:12 22.76571 47.12496 37942 ft 440 kts 276°
2026-04-26 18:13 22.77132 47.05869 37957 ft 440 kts 276°
2026-04-26 18:13 22.77674 46.99261 37949 ft 440 kts 275°
2026-04-26 18:14 22.78198 46.92682 37952 ft 440 kts 275°
2026-04-26 18:14 22.78718 46.86060 37953 ft 440 kts 275°
2026-04-26 18:15 22.79236 46.79434 37959 ft 440 kts 275°
2026-04-26 18:15 22.79750 46.72831 37958 ft 440 kts 275°
2026-04-26 18:16 22.80263 46.66197 37962 ft 440 kts 275°
2026-04-26 18:16 22.81022 46.56325 37966 ft 440 kts 275°
2026-04-26 18:17 22.81529 46.49691 37972 ft 440 kts 275°
2026-04-26 18:17 22.82029 46.43094 37974 ft 440 kts 275°
2026-04-26 18:18 22.82529 46.36473 37974 ft 440 kts 275°
2026-04-26 18:18 22.83018 46.29873 37969 ft 440 kts 275°
2026-04-26 18:19 22.83504 46.23255 37964 ft 440 kts 275°
2026-04-26 18:19 22.83988 46.16640 37966 ft 439 kts 275°
2026-04-26 18:20 22.84466 46.10065 37970 ft 439 kts 275°
2026-04-26 18:20 22.84786 46.05641 37957 ft 440 kts 275°
2026-04-26 18:21 22.85421 45.96837 37956 ft 440 kts 275°
2026-04-26 18:21 22.85890 45.90269 37962 ft 439 kts 275°
2026-04-26 18:22 22.86361 45.83654 37952 ft 439 kts 275°
2026-04-26 18:22 22.86828 45.77037 37950 ft 439 kts 275°
2026-04-26 18:23 22.87290 45.70464 37955 ft 439 kts 275°
2026-04-26 18:23 22.87751 45.63861 37956 ft 439 kts 275°
2026-04-26 18:24 22.88210 45.57256 37952 ft 439 kts 275°
2026-04-26 18:24 22.88663 45.50684 37956 ft 439 kts 275°
2026-04-26 18:25 22.89116 45.44086 37961 ft 439 kts 275°
2026-04-26 18:25 22.89490 45.38590 37964 ft 439 kts 275°
2026-04-26 18:26 22.89938 45.31984 37963 ft 438 kts 274°
2026-04-26 18:26 22.90454 45.24319 37957 ft 437 kts 274°
2026-04-26 18:27 22.90822 45.18827 37955 ft 435 kts 274°
2026-04-26 18:27 22.91255 45.12318 37957 ft 434 kts 274°
2026-04-26 18:28 22.91689 45.05763 37960 ft 434 kts 274°
2026-04-26 18:28 22.92120 44.99250 37959 ft 435 kts 274°
2026-04-26 18:29 22.92550 44.92696 37958 ft 436 kts 274°
2026-04-26 18:29 22.92978 44.86122 37964 ft 437 kts 274°
2026-04-26 18:30 22.93402 44.79583 37961 ft 438 kts 274°
2026-04-26 18:30 22.93826 44.72977 37960 ft 438 kts 274°
2026-04-26 18:31 22.94177 44.66374 37966 ft 439 kts 271°
2026-04-26 18:31 22.93924 44.59787 37971 ft 439 kts 268°
2026-04-26 18:32 22.93613 44.53172 37957 ft 438 kts 268°
2026-04-26 18:32 22.93311 44.46563 37958 ft 437 kts 268°
2026-04-26 18:33 22.93017 44.39982 37966 ft 436 kts 268°
2026-04-26 18:33 22.92726 44.33463 37957 ft 434 kts 268°
2026-04-26 18:34 22.92431 44.26912 37951 ft 433 kts 268°
2026-04-26 18:34 22.92134 44.20378 37963 ft 433 kts 268°
2026-04-26 18:35 22.91837 44.13896 37963 ft 432 kts 268°
2026-04-26 18:35 22.91534 44.07370 37964 ft 432 kts 268°
2026-04-26 18:36 22.91229 44.00856 37981 ft 432 kts 268°
2026-04-26 18:36 22.90922 43.94338 37976 ft 433 kts 268°
2026-04-26 18:37 22.90613 43.87846 37967 ft 433 kts 268°
2026-04-26 18:37 22.90300 43.81313 37992 ft 433 kts 268°
2026-04-26 18:38 22.89986 43.74818 37991 ft 434 kts 268°
2026-04-26 18:38 22.89667 43.68276 37985 ft 434 kts 268°
2026-04-26 18:39 22.89343 43.61715 38008 ft 434 kts 268°
2026-04-26 18:39 22.89020 43.55204 38001 ft 434 kts 268°
2026-04-26 18:40 22.88694 43.48671 38008 ft 433 kts 268°
2026-04-26 18:40 22.88367 43.42198 38021 ft 432 kts 268°
2026-04-26 18:41 22.88037 43.35694 38010 ft 431 kts 268°
2026-04-26 18:41 22.87704 43.29201 38010 ft 430 kts 268°
2026-04-26 18:42 22.87369 43.22713 38034 ft 430 kts 268°
2026-04-26 18:42 22.87031 43.16233 38023 ft 430 kts 268°
2026-04-26 18:43 22.86693 43.09792 38027 ft 430 kts 268°
2026-04-26 18:43 22.86350 43.03304 38026 ft 431 kts 268°
2026-04-26 18:44 22.86004 42.96811 38037 ft 430 kts 267°
2026-04-26 18:44 22.85656 42.90330 38026 ft 430 kts 267°
2026-04-26 18:45 22.85308 42.83903 38032 ft 430 kts 267°
2026-04-26 18:45 22.84955 42.77423 38034 ft 429 kts 267°
2026-04-26 18:46 22.84600 42.70958 38034 ft 429 kts 267°
2026-04-26 18:46 22.84243 42.64500 38038 ft 430 kts 267°
2026-04-26 18:47 22.83884 42.58056 38050 ft 431 kts 267°
2026-04-26 18:47 22.83519 42.51549 38042 ft 432 kts 267°
2026-04-26 18:48 22.83150 42.45025 38049 ft 433 kts 267°
2026-04-26 18:48 22.82778 42.38497 38048 ft 433 kts 267°
2026-04-26 18:49 22.82403 42.31972 38056 ft 433 kts 267°
2026-04-26 18:49 22.82028 42.25475 38056 ft 433 kts 267°
2026-04-26 18:50 22.81648 42.18946 38071 ft 433 kts 267°
2026-04-26 18:50 22.81268 42.12460 38060 ft 433 kts 267°
2026-04-26 18:51 22.80883 42.05937 38059 ft 433 kts 267°
2026-04-26 18:51 22.80495 41.99416 38067 ft 434 kts 267°
2026-04-26 18:52 22.80105 41.92886 38074 ft 434 kts 266°
2026-04-26 18:52 22.79667 41.86360 38070 ft 434 kts 265°
2026-04-26 18:53 22.79038 41.79886 38073 ft 434 kts 264°
2026-04-26 18:53 22.78385 41.73386 38076 ft 434 kts 264°
2026-04-26 18:54 22.77751 41.66864 38081 ft 433 kts 265°
2026-04-26 18:54 22.77132 41.60405 38077 ft 433 kts 265°
2026-04-26 18:55 22.76508 41.53918 38090 ft 432 kts 265°
2026-04-26 18:55 22.75882 41.47438 38055 ft 432 kts 265°
2026-04-26 18:56 22.75254 41.40971 38082 ft 432 kts 265°
2026-04-26 18:56 22.74589 41.34531 38096 ft 433 kts 262°
2026-04-26 18:57 22.73467 41.29235 38085 ft 435 kts 256°
2026-04-26 18:57 22.70982 41.22034 38086 ft 437 kts 250°
2026-04-26 18:58 22.68711 41.15927 38078 ft 437 kts 251°
2026-04-26 18:58 22.66478 41.09836 38092 ft 437 kts 251°
2026-04-26 18:59 22.64235 41.03720 38065 ft 437 kts 251°
2026-04-26 18:59 22.61988 40.97606 38086 ft 436 kts 251°
2026-04-26 19:00 22.59743 40.91502 38087 ft 436 kts 251°
2026-04-26 19:00 22.57510 40.85441 38087 ft 436 kts 251°
2026-04-26 19:01 22.55261 40.79351 38089 ft 436 kts 251°
2026-04-26 19:01 22.53007 40.73259 38092 ft 435 kts 251°
2026-04-26 19:02 22.50754 40.67180 38081 ft 435 kts 251°
2026-04-26 19:02 22.48879 40.62123 38099 ft 436 kts 251°
2026-04-26 19:03 22.46248 40.55036 38107 ft 437 kts 251°
2026-04-26 19:03 22.43989 40.48962 38112 ft 438 kts 251°
2026-04-26 19:04 22.41712 40.42846 38117 ft 438 kts 251°
2026-04-26 19:04 22.39432 40.36732 38127 ft 438 kts 251°
2026-04-26 19:05 22.36015 40.27584 38117 ft 437 kts 251°
2026-04-26 19:06 22.33738 40.21496 38131 ft 436 kts 250°
2026-04-26 19:06 22.31476 40.15458 38107 ft 436 kts 250°
2026-04-26 19:06 22.30345 40.12444 37950 ft 428 kts 250°
2026-04-26 19:07 22.29236 40.09488 37470 ft 422 kts 251°
2026-04-26 19:07 22.28131 40.06543 36607 ft 425 kts 250°
2026-04-26 19:07 22.27022 40.03587 36041 ft 422 kts 250°
2026-04-26 19:07 22.25782 40.00761 35797 ft 414 kts 242°
2026-04-26 19:08 22.24213 39.98191 35680 ft 403 kts 239°
2026-04-26 19:08 22.22633 39.95742 35527 ft 393 kts 239°
2026-04-26 19:08 22.21104 39.93337 35206 ft 386 kts 240°
2026-04-26 19:08 22.19621 39.90942 34840 ft 381 kts 240°
2026-04-26 19:09 22.18182 39.88588 34438 ft 378 kts 241°
2026-04-26 19:09 22.16741 39.86225 34016 ft 376 kts 241°
2026-04-26 19:09 22.15306 39.83876 33543 ft 373 kts 241°
2026-04-26 19:09 22.13879 39.81543 33088 ft 370 kts 240°
2026-04-26 19:10 22.12461 39.79227 32659 ft 367 kts 240°
2026-04-26 19:10 22.11056 39.76935 32248 ft 364 kts 241°
2026-04-26 19:10 22.09662 39.74660 31780 ft 362 kts 241°
2026-04-26 19:10 22.08297 39.72432 31366 ft 360 kts 240°
2026-04-26 19:11 22.06917 39.70181 30938 ft 358 kts 240°
2026-04-26 19:11 22.05549 39.67950 30524 ft 356 kts 240°
2026-04-26 19:11 22.04185 39.65727 30104 ft 354 kts 240°
2026-04-26 19:11 22.02829 39.63518 29648 ft 352 kts 240°
2026-04-26 19:12 22.01484 39.61328 29214 ft 349 kts 240°
2026-04-26 19:12 22.00146 39.59149 28782 ft 346 kts 240°
2026-04-26 19:12 21.98834 39.57014 28346 ft 344 kts 239°
2026-04-26 19:12 21.97517 39.54872 27964 ft 341 kts 239°
2026-04-26 19:13 21.96211 39.52748 27547 ft 339 kts 239°
2026-04-26 19:13 21.94907 39.50630 27125 ft 338 kts 239°
2026-04-26 19:13 21.93678 39.48481 26705 ft 335 kts 243°
2026-04-26 19:13 21.92647 39.46245 26313 ft 333 kts 246°
2026-04-26 19:14 21.91678 39.43983 25909 ft 331 kts 246°
2026-04-26 19:14 21.90717 39.41729 25505 ft 331 kts 245°
2026-04-26 19:14 21.89750 39.39490 25116 ft 329 kts 245°
2026-04-26 19:14 21.89435 39.38768 24993 ft 328 kts 245°
2026-04-26 19:15 21.88127 39.35796 24470 ft 327 kts 244°
2026-04-26 19:15 21.86835 39.32886 24169 ft 320 kts 244°
2026-04-26 19:15 21.85891 39.30769 24113 ft 308 kts 244°
2026-04-26 19:15 21.84980 39.28726 24036 ft 297 kts 244°
2026-04-26 19:16 21.84102 39.26760 23978 ft 286 kts 244°
2026-04-26 19:16 21.83252 39.24858 23900 ft 277 kts 244°
2026-04-26 19:16 21.82704 39.23633 23838 ft 270 kts 243°
2026-04-26 19:16 21.81878 39.21840 23640 ft 263 kts 238°
2026-04-26 19:17 21.80763 39.20281 23263 ft 263 kts 230°
2026-04-26 19:17 21.79150 39.18333 22747 ft 264 kts 229°
2026-04-26 19:17 21.78322 39.17335 22509 ft 263 kts 230°
2026-04-26 19:17 21.77126 39.15885 22176 ft 261 kts 230°
2026-04-26 19:18 21.75926 39.14423 21846 ft 260 kts 230°
2026-04-26 19:18 21.74731 39.12961 21499 ft 259 kts 230°
2026-04-26 19:18 21.73542 39.11503 21196 ft 258 kts 230°
2026-04-26 19:18 21.72359 39.10050 20878 ft 257 kts 230°
2026-04-26 19:19 21.71182 39.08601 20514 ft 258 kts 230°
2026-04-26 19:19 21.70014 39.07166 20184 ft 258 kts 230°
2026-04-26 19:19 21.68832 39.05714 19875 ft 257 kts 230°
2026-04-26 19:19 21.67550 39.04405 19514 ft 258 kts 213°
2026-04-26 19:20 21.65827 39.03759 19111 ft 268 kts 193°
2026-04-26 19:20 21.64583 39.03669 18893 ft 272 kts 182°
2026-04-26 19:20 21.62090 39.04329 18466 ft 281 kts 166°
2026-04-26 19:20 21.60270 39.05093 18173 ft 281 kts 165°
2026-04-26 19:21 21.58455 39.05861 17852 ft 279 kts 165°